Fargo, ND

6:39 PM CDT on September 28, 2016 (GMT -0500)
Hector International

Weather History for KFAR - December, 2011

Change the Weather History Date:

Monday, December 5, 2011

  Actual Average Record
Temperature  
Mean Temperature 10 °F 18 °F  
Max Temperature 17 °F 26 °F 54 °F (1939)
Min Temperature 3 °F 10 °F -18 °F (1972)
Degree Days  
Heating Degree Days 55 47  
Month to date heating degree days 219 231  
Since 1 July heating degree days 1765 2193  
Cooling Degree Days 0 0  
Month to date cooling degree days 0 0  
Year to date cooling degree days 694 551  
Moisture  
Dew Point -1 °F    
Average Humidity 64    
Maximum Humidity 79    
Minimum Humidity 48    
Precipitation  
Precipitation T in 0.03 in 0.73 in (1960)
Month to date precipitation T 0.14  
Year to date precipitation 23.59 21.92  
Snow  
Snow T in 0.30 in 5.80 in (1909)
Month to date snowfall T 1.7  
Since 1 July snowfall 0.8 10.3  
Snow Depth 0.00 in    
Sea Level Pressure  
Sea Level Pressure 30.60 in    
Wind  
Wind Speed 9 mph (NNW)    
Max Wind Speed 22 mph    
Max Gust Speed 25 mph    
Visibility 10 miles    
Events      
T = Trace of Precipitation, MM = Missing Value Source: NWS Daily Summary

Daily Weather History Graph

Daily Weather History Graph

Search for Another Location

Airport or City:

Trip Planner

Search our weather history database for the weather conditions in past years. The results will help you decide how hot, cold, wet, or windy it might be!

Date:

Astronomy

Dec. 05, 2011 Rise Set
Actual Time 7:56 AM CST 4:39 PM CST
Civil Twilight 7:21 AM CST 5:13 PM CST
Nautical Twilight 6:43 AM CST 5:52 PM CST
Astronomical Twilight 6:06 AM CST 6:29 PM CST
Moon 1:48 PM CST (12/5) 3:06 AM CST (12/5)
Length of Visible Light 9h 52m
Length of Day
8h 42m
Waxing Gibbous, 80% of the Moon is Illuminated
Dec 5
Waxing Gibbous
Dec 10
Full
Dec 17
Last Quarter
Dec 24
New
Jan 1
First Quarter

Hourly Weather History & Observations

Time (CST) Temp. Windchill Dew Point Humidity Pressure Visibility Wind Dir Wind Speed Gust Speed Precip Events Conditions
12:53 AM 16.0 °F 2.9 °F 6.1 °F 65% 30.54 in 10.0 mi North 11.5 mph - 0.00 in   Overcast
1:53 AM 12.9 °F -4.9 °F 3.0 °F 65% 30.56 in 10.0 mi North 19.6 mph 24.2 mph 0.00 in   Overcast
2:53 AM 12.0 °F -4.5 °F 1.9 °F 64% 30.58 in 10.0 mi North 16.1 mph - N/A   Overcast
3:31 AM 8.6 °F -10.0 °F -0.4 °F 67% 30.52 in 10.0 mi North 18.4 mph - N/A   Scattered Clouds
3:53 AM 9.0 °F -6.6 °F -0.0 °F 67% 30.59 in 10.0 mi North 12.7 mph - N/A   Clear
4:53 AM 7.0 °F -7.5 °F -0.9 °F 70% 30.61 in 10.0 mi North 10.4 mph - N/A   Clear
5:53 AM 6.1 °F -10.2 °F -0.9 °F 73% 30.63 in 10.0 mi North 12.7 mph - N/A   Scattered Clouds
6:53 AM 6.1 °F -9.5 °F -2.0 °F 69% 30.65 in 10.0 mi North 11.5 mph - N/A   Overcast
7:53 AM 3.9 °F -12.2 °F -2.9 °F 73% 30.66 in 10.0 mi NNW 11.5 mph - N/A   Clear
8:53 AM 3.9 °F -12.2 °F -2.9 °F 73% 30.68 in 10.0 mi North 11.5 mph - N/A   Clear
9:53 AM 5.0 °F -12.3 °F -2.9 °F 70% 30.69 in 10.0 mi NNW 13.8 mph - N/A   Partly Cloudy
10:53 AM 7.0 °F -6.6 °F -2.9 °F 64% 30.69 in 10.0 mi North 9.2 mph - N/A   Clear
11:53 AM 8.1 °F -3.2 °F -2.9 °F 61% 30.68 in 10.0 mi NW 6.9 mph - N/A   Clear
12:53 PM 10.9 °F -1.8 °F -2.9 °F 54% 30.65 in 10.0 mi NNW 9.2 mph - N/A   Clear
1:53 PM 12.0 °F -0.4 °F -2.9 °F 51% 30.63 in 10.0 mi NNW 9.2 mph - N/A   Clear
2:53 PM 12.9 °F 2.6 °F -2.9 °F 49% 30.61 in 10.0 mi NNW 6.9 mph - N/A   Clear
3:53 PM 12.0 °F 4.1 °F -4.0 °F 49% 30.61 in 10.0 mi NNW 4.6 mph - N/A   Clear
4:53 PM 9.0 °F 0.6 °F -4.0 °F 56% 30.62 in 10.0 mi WNW 4.6 mph - N/A   Mostly Cloudy
5:53 PM 10.0 °F 3.6 °F -0.9 °F 61% 30.61 in 10.0 mi WNW 3.5 mph - N/A   Overcast
6:53 PM 10.0 °F 3.6 °F -0.9 °F 61% 30.59 in 10.0 mi ESE 3.5 mph - N/A   Overcast
7:53 PM 10.9 °F 4.7 °F -0.0 °F 61% 30.58 in 10.0 mi SSW 3.5 mph - N/A   Overcast
8:53 PM 10.9 °F 0.2 °F -0.0 °F 61% 30.56 in 10.0 mi SSW 6.9 mph - N/A   Overcast
9:53 PM 12.0 °F 1.5 °F 1.0 °F 61% 30.54 in 10.0 mi SSW 6.9 mph - N/A   Overcast
10:53 PM 10.9 °F -1.8 °F -0.0 °F 61% 30.54 in 10.0 mi SW 9.2 mph - N/A   Overcast
11:31 PM 6.8 °F -4.8 °F -2.2 °F 67% 30.47 in 10.0 mi SSW 6.9 mph - N/A   Partly Cloudy
11:53 PM 7.0 °F -5.7 °F -2.0 °F 67% 30.53 in 10.0 mi South 8.1 mph - N/A   Mostly Cloudy